EW6241 Weather Reports


Display with metric or nautical units.
time (UTC)temp
F
wind
direction
speed
MPH
gust
MPH
rain 1hr
in
rain 24hr
in
rain mn
in
humidity
%
barometer
mb
20180717085630 74 213 4.0 7.0 0.00 0.00 0.00 91 1014.3
20180717084629 74 202 1.0 6.0 0.00 0.00 0.00 90 1014.4
20180717083629 74 165 0.0 7.0 0.00 0.00 0.00 89 1014.4
20180717082629 74 124 1.0 6.0 0.00 0.00 0.00 88 1014.2
20180717081629 75 209 0.0 4.0 0.00 0.00 0.00 87 1014.2
20180717080629 75 227 2.0 6.0 0.00 0.00 0.00 87 1014.2
20180717075629 75 253 0.0 7.0 0.00 0.00 0.00 85 1014.2
20180717074630 75 100 0.0 6.0 0.00 0.00 0.00 84 1014.2
20180717073630 75 175 2.0 5.0 0.00 0.00 0.00 83 1014.2
20180717072629 76 194 3.0 5.0 0.00 0.00 0.00 82 1014.3
20180717071629 76 192 2.0 5.0 0.00 0.00 0.00 82 1014.4
20180717070630 76 198 2.0 5.0 0.00 0.00 0.00 81 1014.4
20180717065630 76 134 0.0 7.0 0.00 0.00 0.00 81 1014.4
20180717064630 76 190 1.0 4.0 0.00 0.00 0.00 82 1014.7
20180717063630 77 152 0.0 4.0 0.00 0.00 0.00 81 1014.8
20180717062630 77 169 0.0 3.0 0.00 0.00 0.00 80 1014.7
20180717061630 77 138 1.0 3.0 0.00 0.00 0.00 80 1014.7
20180717060630 78 139 0.0 3.0 0.00 0.00 0.00 79 1014.6
20180717055630 78 157 2.0 8.0 0.00 0.00 0.00 78 1014.6
20180717054630 78 148 3.0 6.0 0.00 0.00 0.00 78 1014.5
20180717053630 79 132 2.0 8.0 0.00 0.00 0.00 78 1014.5
20180717052630 79 125 0.0 8.0 0.00 0.00 0.00 77 1014.7
20180717051630 80 126 0.0 9.0 0.00 0.00 0.00 77 1014.6
20180717050630 80 154 1.0 12.0 0.00 0.00 0.00 76 1014.5
20180717045630 80 128 2.0 9.0 0.00 0.00 0.00 76 1014.6
20180717044630 80 198 2.0 8.0 0.00 0.00 0.00 76 1014.5
20180717043630 81 90 1.0 8.0 0.00 0.00 0.00 75 1014.5
20180717042630 81 161 4.0 8.0 0.00 0.00 0.00 74 1014.4
20180717041630 81 132 4.0 9.0 0.00 0.00 0.00 74 1014.3
20180717040630 82 144 4.0 7.0 0.00 0.00 0.00 73 1014.2
20180717035630 82 140 4.0 8.0 0.00 0.00 0.00 71 1014.2
20180717034630 82 161 0.0 7.0 0.00 0.00 0.00 71 1014.0
20180717033630 83 108 6.0 9.0 0.00 0.00 0.00 70 1013.7
20180717032630 83 171 2.0 10.0 0.00 0.00 0.00 70 1013.5
20180717031630 84 153 2.0 10.0 0.00 0.00 0.00 69 1013.3
20180717030630 84 149 2.0 10.0 0.00 0.00 0.00 67 1013.1
20180717025630 85 124 4.0 10.0 0.00 0.00 0.00 66 1013.0
20180717024630 85 132 5.0 12.0 0.00 0.00 0.00 65 1012.7
20180717023630 85 104 4.0 7.0 0.00 0.00 0.00 63 1012.6
20180717022630 86 214 2.0 8.0 0.00 0.00 0.00 61 1012.4
20180717021630 86 161 4.0 7.0 0.00 0.00 0.00 59 1012.3
20180717020630 86 91 2.0 5.0 0.00 0.00 0.00 56 1012.4
20180717015631 87 134 3.0 8.0 0.00 0.00 0.00 53 1012.3
20180717014631 87 130 2.0 7.0 0.00 0.00 0.00 49 1012.2
20180717013630 88 134 1.0 7.0 0.00 0.00 0.00 47 1012.1
20180717012630 89 124 3.0 7.0 0.00 0.00 0.00 46 1012.0
20180717011631 89 109 3.0 10.0 0.00 0.00 0.00 45 1011.9
20180717010630 90 119 5.0 10.0 0.00 0.00 0.00 45 1011.8
20180717005630 90 132 0.0 9.0 0.00 0.00 0.00 44 1011.7
20180717004631 91 154 3.0 10.0 0.00 0.00 0.00 43 1011.7
20180717003631 92 84 2.0 12.0 0.00 0.00 0.00 42 1011.6
20180717002631 93 228 3.0 10.0 0.00 0.00 0.00 40 1011.4
20180717001631 93 157 5.0 10.0 0.00 0.00 0.00 37 1011.4
20180717000631 94 111 6.0 9.0 0.00 0.00 0.00 34 1011.4
20180716235631 94 132 4.0 11.0 0.00 0.00 0.00 33 1011.4
20180716234631 94 131 7.0 11.0 0.00 0.00 0.00 33 1011.3
20180716233631 95 158 3.0 12.0 0.00 0.00 0.00 33 1011.4
20180716232631 95 137 4.0 11.0 0.00 0.00 0.00 32 1011.5
20180716231631 96 147 5.0 10.0 0.00 0.00 0.00 32 1011.5
20180716230631 96 106 1.0 8.0 0.00 0.00 0.00 32 1011.6
20180716225631 96 167 4.0 11.0 0.00 0.00 0.00 32 1011.6
20180716224631 96 151 3.0 8.0 0.00 0.00 0.00 34 1011.7
20180716223631 96 148 6.0 14.0 0.00 0.00 0.00 35 1011.8
20180716222631 96 86 1.0 7.0 0.00 0.00 0.00 35 1011.8
20180716221631 96 111 6.0 11.0 0.00 0.00 0.00 35 1011.9
20180716220631 96 151 2.0 10.0 0.00 0.00 0.00 36 1012.0
20180716215631 96 132 3.0 11.0 0.00 0.00 0.00 34 1012.0
20180716214631 96 178 2.0 8.0 0.00 0.00 0.00 35 1012.1
20180716213631 96 246 4.0 10.0 0.00 0.00 0.00 35 1012.3
20180716212631 96 133 3.0 10.0 0.00 0.00 0.00 35 1012.4
20180716211631 96 90 1.0 11.0 0.00 0.00 0.00 36 1012.7
20180716210631 96 122 9.0 11.0 0.00 0.00 0.00 37 1012.8
20180716205632 96 279 2.0 10.0 0.00 0.00 0.00 37 1012.9
20180716204631 96 203 1.0 12.0 0.00 0.00 0.00 40 1013.0
20180716203631 95 147 2.0 11.0 0.00 0.00 0.00 37 1013.1
20180716202631 95 129 2.0 10.0 0.00 0.00 0.00 38 1013.2
20180716201631 95 182 9.0 10.0 0.00 0.00 0.00 41 1013.4
20180716200631 95 202 5.0 12.0 0.00 0.00 0.00 41 1013.5
20180716195631 94 165 5.0 11.0 0.00 0.00 0.00 40 1013.7
20180716194631 94 160 4.0 10.0 0.00 0.00 0.00 40 1013.7
20180716193631 94 202 2.0 17.0 0.00 0.00 0.00 41 1013.8
20180716192631 94 202 3.0 11.0 0.00 0.00 0.00 42 1014.0
20180716191631 93 194 2.0 10.0 0.00 0.00 0.00 44 1014.2
20180716190631 93 115 7.0 12.0 0.00 0.00 0.00 44 1014.3
20180716185633 92 152 3.0 9.0 0.00 0.00 0.00 46 1014.3
20180716184631 92 288 7.0 12.0 0.00 0.00 0.00 46 1014.4
20180716183631 92 92 2.0 8.0 0.00 0.00 0.00 48 1014.4
20180716182632 91 242 9.0 11.0 0.00 0.00 0.00 46 1014.5
20180716181632 91 172 0.0 10.0 0.00 0.00 0.00 47 1014.5
20180716180632 91 252 2.0 13.0 0.00 0.00 0.00 50 1014.5
20180716175632 90 209 5.0 11.0 0.00 0.00 0.00 52 1014.7
20180716174631 90 156 8.0 14.0 0.00 0.00 0.00 51 1014.8
20180716173632 89 90 1.0 10.0 0.00 0.00 0.00 56 1014.9
20180716172632 89 215 6.0 11.0 0.00 0.00 0.00 56 1014.9
20180716171632 89 234 3.0 13.0 0.00 0.00 0.00 55 1014.9
20180716170632 88 194 3.0 10.0 0.00 0.00 0.00 57 1014.9
20180716165632 87 216 7.0 9.0 0.00 0.00 0.00 61 1014.9
20180716164632 87 246 4.0 11.0 0.00 0.00 0.00 60 1014.9
20180716163632 86 136 2.0 12.0 0.00 0.00 0.00 63 1014.9
20180716162632 86 213 3.0 14.0 0.00 0.00 0.00 64 1015.0
20180716161632 86 242 4.0 11.0 0.00 0.00 0.00 62 1015.0
20180716160632 85 209 7.0 9.0 0.00 0.00 0.00 64 1015.0
20180716155632 85 132 2.0 9.0 0.00 0.00 0.00 68 1014.9
20180716154632 84 192 0.0 10.0 0.00 0.00 0.00 68 1014.9
20180716153632 84 225 5.0 9.0 0.00 0.00 0.00 68 1014.8
20180716152632 83 219 4.0 13.0 0.00 0.00 0.00 69 1014.9
20180716151632 82 250 9.0 11.0 0.00 0.00 0.00 72 1015.0
20180716150632 82 164 0.0 6.0 0.00 0.00 0.00 74 1014.9
20180716145632 81 133 4.0 7.0 0.00 0.00 0.00 74 1014.9
20180716144632 81 120 2.0 9.0 0.00 0.00 0.00 75 1014.9
20180716143632 81 156 2.0 11.0 0.00 0.00 0.00 76 1014.8
20180716142632 81 231 2.0 7.0 0.00 0.00 0.00 77 1014.9
20180716141632 80 148 4.0 8.0 0.00 0.00 0.00 78 1014.8
20180716140632 79 26 0.0 6.0 0.00 0.00 0.00 81 1014.8
20180716135632 78 86 0.0 8.0 0.00 0.00 0.00 84 1014.7
20180716134632 77 157 0.0 6.0 0.00 0.00 0.00 85 1014.8
20180716133632 76 153 0.0 7.0 0.00 0.00 0.00 87 1014.8
20180716132632 76 190 1.0 8.0 0.00 0.00 0.00 88 1014.9
20180716131632 76 213 3.0 6.0 0.00 0.00 0.00 89 1014.8
20180716130632 76 223 6.0 6.0 0.00 0.00 0.00 90 1014.7
20180716125632 75 209 0.0 5.0 0.00 0.00 0.00 90 1014.5
20180716124632 75 205 1.0 5.0 0.00 0.00 0.00 91 1014.3
20180716123632 75 167 0.0 6.0 0.00 0.00 0.00 92 1014.1
20180716122632 75 173 0.0 3.0 0.00 0.00 0.00 92 1013.9
20180716121632 74 148 0.0 2.0 0.00 0.00 0.00 92 1013.8
20180716120632 74 182 0.0 4.0 0.00 0.00 0.00 92 1013.8
20180716115632 74 157 0.0 3.0 0.00 0.00 0.00 92 1013.7
20180716114632 74 164 0.0 3.0 0.00 0.00 0.00 92 1013.8
20180716113632 74 152 0.0 4.0 0.00 0.00 0.00 91 1013.7
20180716112632 74 158 0.0 5.0 0.00 0.00 0.00 91 1013.5
20180716111632 74 177 0.0 5.0 0.00 0.00 0.00 91 1013.5
20180716110632 74 169 1.0 5.0 0.00 0.00 0.00 91 1013.5
20180716105632 74 159 0.0 4.0 0.00 0.00 0.00 91 1013.5
20180716104633 74 158 5.0 5.0 0.00 0.00 0.00 90 1013.5
20180716103632 75 209 0.0 5.0 0.00 0.00 0.00 90 1013.5
20180716102632 75 171 1.0 5.0 0.00 0.00 0.00 90 1013.5
20180716101632 75 205 2.0 7.0 0.00 0.00 0.00 89 1013.5
20180716100632 75 142 0.0 4.0 0.00 0.00 0.00 90 1013.6
20180716095633 75 224 0.0 7.0 0.00 0.00 0.00 90 1013.6
20180716094633 75 166 0.0 6.0 0.00 0.00 0.00 90 1013.6
20180716093633 75 113 0.0 6.0 0.00 0.00 0.00 90 1013.6
20180716092633 75 163 0.0 4.0 0.00 0.00 0.00 90 1013.6
20180716091633 75 169 0.0 6.0 0.00 0.00 0.00 89 1013.6
20180716090633 75 180 0.0 7.0 0.00 0.00 0.00 89 1013.5